Location: El Bakhil
(32.7726°N, 5.5387°W)
Time: 23:48:24
(UTC+00:00)

EO-88 - Pass Details

Date: 07 August 2021
Orbit: 474 x 484 km, 97.3° (Epoch: 24 September)

Event Time Altitude Azimuth Distance (km) Brightness Sun altitude
Exits shadow 21:33:12 16° 22° (NNE) 1,340 ? -25.7°
Drops below altitude 10° 21:34:08 10° 13° (NNE) 1,670 ? -25.8°
Sets 21:36:22 0° 2° (N) 2,556 ? -26.2°
